サイディング・スプリング彗星

C/2010 A4 ( Siding Spring )

English version
Home page
Updated on November 5, 2020

---------------------------------------------------------------------

・ プロフィール

発見日 2010年1月12日
発見光度 18.7等
発見者 G. J. Garradd (Siding Spring)

・ 写真集

・ 軌道要素

Epoch 2010 Oct. 11.0 TT = JDT 2455480.5
T 2010 Oct. 8.76394 TT                                  MPC
q   2.7379548            (2000.0)            P               Q
z  +0.0035149      Peri.  271.69125     +0.05569772     +0.97190094
 +/-0.0000017      Node   346.68569     +0.49321688     -0.22594447
e   0.9903763      Incl.   96.73026     -0.86812146     -0.06601261
From 123 observations 2010 Jan. 12-2011 Oct. 29, mean residual 0".6.

・ 星図

・ 光度変化

        m1 = 9.5 + 5 logΔ + 10.0 log r

---------------------------------------------------------------------

軌道要素はM.P.E.C. 2011-X25に掲載されたものです。
星図はステラナビゲータ Ver.8 (アストロアーツ) で作成したものです。
光度グラフはComet for Windowsで作成したものです。

---------------------------------------------------------------------

Copyright(C) Seiichi Yoshida (comet@aerith.net). All rights reserved.